Time,TemperatureF,DewpointF,PressureIn,WindDirection,WindDirectionDegrees,WindSpeedMPH,WindSpeedGustMPH,Humidity,HourlyPrecipIn,Conditions,Clouds,dailyrainin,SoftwareType,DateUTC
2013-01-19 00:00:00,0.3,-10.3,30.30,SE,126,13.0,20.0,60,0.00,,,0.00,Wunderground v.1.15,2013-01-19 09:00:00,
2013-01-19 00:05:00,0.0,-10.3,30.30,SE,125,13.0,20.0,61,0.00,,,0.00,Wunderground v.1.15,2013-01-19 09:05:00,
2013-01-19 00:15:00,-0.2,-10.5,30.29,ESE,104,12.0,14.0,61,0.00,,,0.00,Wunderground v.1.15,2013-01-19 09:15:00,
2013-01-19 00:20:00,-0.4,-10.3,30.29,SE,138,12.0,12.0,62,0.00,,,0.00,Wunderground v.1.15,2013-01-19 09:20:00,
2013-01-19 00:30:00,0.1,-10.5,30.29,East,101,11.0,12.0,60,0.00,,,0.00,Wunderground v.1.15,2013-01-19 09:30:00,
2013-01-19 00:35:00,0.0,-10.6,30.29,East,97,12.0,21.0,60,0.00,,,0.00,Wunderground v.1.15,2013-01-19 09:35:00,
2013-01-19 00:40:00,-0.2,-10.8,30.29,ESE,116,11.0,11.0,60,0.00,,,0.00,Wunderground v.1.15,2013-01-19 09:40:00,
2013-01-19 00:45:00,-0.2,-10.8,30.28,ESE,105,10.0,11.0,60,0.00,,,0.00,Wunderground v.1.15,2013-01-19 09:45:00,
2013-01-19 00:50:00,0.0,-10.6,30.28,East,91,9.0,9.0,60,0.00,,,0.00,Wunderground v.1.15,2013-01-19 09:50:00,
2013-01-19 00:55:00,0.0,-10.6,30.28,SE,125,9.0,9.0,60,0.00,,,0.00,Wunderground v.1.15,2013-01-19 09:55:00,
2013-01-19 01:00:00,1.3,-9.4,30.28,ESE,114,9.0,10.0,60,0.00,,,0.00,Wunderground v.1.15,2013-01-19 10:00:00,
2013-01-19 01:10:00,2.0,-9.1,30.28,ESE,102,10.0,16.0,59,0.00,,,0.00,Wunderground v.1.15,2013-01-19 10:10:00,
2013-01-19 01:15:00,1.7,-9.3,30.28,ENE,74,10.0,16.0,59,0.00,,,0.00,Wunderground v.1.15,2013-01-19 10:15:00,
2013-01-19 01:25:00,2.0,-9.4,30.28,East,97,9.0,11.0,58,0.00,,,0.00,Wunderground v.1.15,2013-01-19 10:25:00,
2013-01-19 01:30:00,1.8,-9.6,30.27,East,91,8.0,8.0,58,0.00,,,0.00,Wunderground v.1.15,2013-01-19 10:30:00,
2013-01-19 01:35:00,2.0,-9.8,30.27,ENE,67,7.0,8.0,57,0.00,,,0.00,Wunderground v.1.15,2013-01-19 10:35:00,
2013-01-19 01:45:00,2.0,-9.4,30.27,East,80,5.0,7.0,58,0.00,,,0.00,Wunderground v.1.15,2013-01-19 10:45:00,
2013-01-19 01:50:00,2.0,-9.4,30.27,ESE,102,5.0,7.0,58,0.00,,,0.00,Wunderground v.1.15,2013-01-19 10:50:00,
2013-01-19 01:55:00,2.0,-9.8,30.27,East,84,6.0,7.0,57,0.00,,,0.00,Wunderground v.1.15,2013-01-19 10:55:00,
2013-01-19 02:05:00,2.2,-9.6,30.26,East,92,5.0,8.0,57,0.00,,,0.00,Wunderground v.1.15,2013-01-19 11:05:00,
2013-01-19 02:10:00,2.2,-9.6,30.26,East,84,5.0,5.0,57,0.00,,,0.00,Wunderground v.1.15,2013-01-19 11:10:00,
2013-01-19 03:50:00,2.6,-9.6,30.22,ENE,66,6.0,6.0,56,0.00,,,0.00,Wunderground v.1.15,2013-01-19 12:50:00,
2013-01-19 03:55:00,2.6,-9.6,30.22,NE,53,7.0,7.0,56,0.00,,,0.00,Wunderground v.1.15,2013-01-19 12:55:00,
2013-01-19 04:00:00,2.4,-9.4,30.22,NE,36,3.0,5.0,57,0.00,,,0.00,Wunderground v.1.15,2013-01-19 13:00:00,
2013-01-19 04:05:00,2.8,-9.0,30.22,ENE,59,4.0,5.0,57,0.00,,,0.00,Wunderground v.1.15,2013-01-19 13:05:00,
2013-01-19 04:10:00,3.0,-9.2,30.22,ENE,57,5.0,7.0,56,0.00,,,0.00,Wunderground v.1.15,2013-01-19 13:10:00,
2013-01-19 04:15:00,2.2,-9.9,30.21,ENE,74,3.0,7.0,56,0.00,,,0.00,Wunderground v.1.15,2013-01-19 13:15:00,
2013-01-19 04:20:00,2.0,-9.8,30.21,East,85,2.0,11.0,57,0.00,,,0.00,Wunderground v.1.15,2013-01-19 13:20:00,
2013-01-19 04:25:00,1.8,-10.0,30.21,NE,50,2.0,11.0,57,0.00,,,0.00,Wunderground v.1.15,2013-01-19 13:25:00,
2013-01-19 04:30:00,2.4,-9.4,30.20,NE,56,4.0,5.0,57,0.00,,,0.00,Wunderground v.1.15,2013-01-19 13:30:00,
2013-01-19 04:40:00,2.0,-9.8,30.20,NNE,32,7.0,8.0,57,0.00,,,0.00,Wunderground v.1.15,2013-01-19 13:40:00,
2013-01-19 04:45:00,1.7,-10.0,30.19,ENE,73,9.0,9.0,57,0.00,,,0.00,Wunderground v.1.15,2013-01-19 13:45:00,
2013-01-19 04:50:00,1.7,-10.4,30.19,ENE,76,8.0,8.0,56,0.00,,,0.00,Wunderground v.1.15,2013-01-19 13:50:00,
2013-01-19 04:55:00,1.7,-10.4,30.19,ENE,76,8.0,8.0,56,0.00,,,0.00,Wunderground v.1.15,2013-01-19 13:55:00,
2013-01-19 05:00:00,0.9,-10.4,30.19,East,90,10.0,10.0,58,0.00,,,0.00,Wunderground v.1.15,2013-01-19 14:00:00,
2013-01-19 05:05:00,0.3,-10.7,30.19,East,84,8.0,10.0,59,0.00,,,0.00,Wunderground v.1.15,2013-01-19 14:05:00,
2013-01-19 05:10:00,0.3,-10.7,30.19,East,84,10.0,10.0,59,0.00,,,0.00,Wunderground v.1.15,2013-01-19 14:10:00,
2013-01-19 05:15:00,0.0,-11.0,30.17,ENE,77,5.0,10.0,59,0.00,,,0.00,Wunderground v.1.15,2013-01-19 14:15:00,
2013-01-19 05:20:00,0.1,-10.5,30.17,ENE,74,7.0,7.0,60,0.00,,,0.00,Wunderground v.1.15,2013-01-19 14:20:00,
2013-01-19 05:30:00,0.7,-10.0,30.16,ENE,59,8.0,8.0,60,0.00,,,0.00,Wunderground v.1.15,2013-01-19 14:30:00,
2013-01-19 05:35:00,0.7,-10.3,30.16,East,91,8.0,9.0,59,0.00,,,0.00,Wunderground v.1.15,2013-01-19 14:35:00,
2013-01-19 05:40:00,1.5,-9.9,30.16,ESE,109,9.0,14.0,58,0.00,,,0.00,Wunderground v.1.15,2013-01-19 14:40:00,
2013-01-19 05:45:00,1.5,-9.9,30.15,East,91,10.0,14.0,58,0.00,,,0.00,Wunderground v.1.15,2013-01-19 14:45:00,
2013-01-19 05:50:00,1.3,-10.1,30.15,SE,124,8.0,10.0,58,0.00,,,0.00,Wunderground v.1.15,2013-01-19 14:50:00,
2013-01-19 05:55:00,1.3,-10.1,30.15,ESE,118,8.0,10.0,58,0.00,,,0.00,Wunderground v.1.15,2013-01-19 14:55:00,
2013-01-19 06:05:00,1.5,-10.2,30.14,East,92,12.0,13.0,57,0.00,,,0.00,Wunderground v.1.15,2013-01-19 15:05:00,
2013-01-19 06:10:00,1.3,-10.4,30.14,ENE,64,8.0,8.0,57,0.00,,,0.00,Wunderground v.1.15,2013-01-19 15:10:00,
2013-01-19 06:15:00,1.5,-9.9,30.14,NNE,29,5.0,8.0,58,0.00,,,0.00,Wunderground v.1.15,2013-01-19 15:15:00,
2013-01-19 06:20:00,1.8,-9.6,30.14,NE,39,5.0,5.0,58,0.00,,,0.00,Wunderground v.1.15,2013-01-19 15:20:00,
2013-01-19 06:25:00,2.0,-9.4,30.14,NNE,32,4.0,7.0,58,0.00,,,0.00,Wunderground v.1.15,2013-01-19 15:25:00,
2013-01-19 06:35:00,2.8,-8.7,30.13,ENE,76,4.0,6.0,58,0.00,,,0.00,Wunderground v.1.15,2013-01-19 15:35:00,
2013-01-19 06:40:00,2.8,-9.0,30.13,NE,56,3.0,3.0,57,0.00,,,0.00,Wunderground v.1.15,2013-01-19 15:40:00,
2013-01-19 06:45:00,2.4,-9.4,30.12,NE,39,3.0,5.0,57,0.00,,,0.00,Wunderground v.1.15,2013-01-19 15:45:00,
2013-01-19 06:50:00,2.8,-9.4,30.12,ENE,60,5.0,5.0,56,0.00,,,0.00,Wunderground v.1.15,2013-01-19 15:50:00,
2013-01-19 06:55:00,2.8,-9.4,30.12,ENE,60,2.0,5.0,56,0.00,,,0.00,Wunderground v.1.15,2013-01-19 15:55:00,
2013-01-19 07:00:00,3.0,-9.2,30.11,NE,37,3.0,3.0,56,0.00,,,0.00,Wunderground v.1.15,2013-01-19 16:00:00,
2013-01-19 07:10:00,2.4,-9.4,30.11,NE,37,3.0,3.0,57,0.00,,,0.00,Wunderground v.1.15,2013-01-19 16:10:00,
2013-01-19 07:15:00,2.2,-9.6,30.10,ESE,109,13.0,13.0,57,0.00,,,0.00,Wunderground v.1.15,2013-01-19 16:15:00,
2013-01-19 07:20:00,2.4,-9.4,30.10,East,83,8.0,11.0,57,0.00,,,0.00,Wunderground v.1.15,2013-01-19 16:20:00,
2013-01-19 07:25:00,2.2,-9.6,30.10,ENE,76,10.0,11.0,57,0.00,,,0.00,Wunderground v.1.15,2013-01-19 16:25:00,
2013-01-19 07:30:00,2.2,-9.6,30.08,East,90,12.0,17.0,57,0.00,,,0.00,Wunderground v.1.15,2013-01-19 16:30:00,
2013-01-19 07:35:00,2.6,-8.8,30.08,ESE,109,13.0,17.0,58,0.00,,,0.00,Wunderground v.1.15,2013-01-19 16:35:00,
2013-01-19 07:45:00,2.4,-9.0,30.08,East,87,8.0,12.0,58,0.00,,,0.00,Wunderground v.1.15,2013-01-19 16:45:00,
2013-01-19 07:50:00,2.4,-9.4,30.08,SE,146,7.0,7.0,57,0.00,,,0.00,Wunderground v.1.15,2013-01-19 16:50:00,
2013-01-19 07:55:00,2.4,-9.4,30.08,East,101,6.0,7.0,57,0.00,,,0.00,Wunderground v.1.15,2013-01-19 16:55:00,
2013-01-19 08:00:00,2.4,-9.7,30.07,NE,53,5.0,5.0,56,0.00,,,0.00,Wunderground v.1.15,2013-01-19 17:00:00,
2013-01-19 08:05:00,2.4,-9.7,30.07,ESE,122,3.0,5.0,56,0.00,,,0.00,Wunderground v.1.15,2013-01-19 17:05:00,
2013-01-19 08:10:00,3.2,-9.4,30.07,NNW,337,2.0,2.0,55,0.00,,,0.00,Wunderground v.1.15,2013-01-19 17:10:00,
2013-01-19 08:20:00,3.7,-8.9,30.06,East,97,5.0,5.0,55,0.00,,,0.00,Wunderground v.1.15,2013-01-19 17:20:00,
2013-01-19 08:25:00,3.7,-9.3,30.06,North,8,6.0,13.0,54,0.00,,,0.00,Wunderground v.1.15,2013-01-19 17:25:00,
2013-01-19 08:30:00,3.7,-9.3,30.05,NNW,330,4.0,4.0,54,0.00,,,0.00,Wunderground v.1.15,2013-01-19 17:30:00,
2013-01-19 08:35:00,3.2,-9.4,30.05,North,4,3.0,4.0,55,0.00,,,0.00,Wunderground v.1.15,2013-01-19 17:35:00,
2013-01-19 08:40:00,3.5,-9.1,30.05,NE,40,6.0,6.0,55,0.00,,,0.00,Wunderground v.1.15,2013-01-19 17:40:00,
2013-01-19 08:45:00,3.7,-9.3,30.05,NE,40,8.0,8.0,54,0.00,,,0.00,Wunderground v.1.15,2013-01-19 17:45:00,
2013-01-19 08:50:00,3.9,-9.5,30.05,East,92,8.0,8.0,53,0.00,,,0.00,Wunderground v.1.15,2013-01-19 17:50:00,
2013-01-19 08:55:00,3.9,-9.5,30.05,ESE,121,11.0,13.0,53,0.00,,,0.00,Wunderground v.1.15,2013-01-19 17:55:00,
2013-01-19 09:05:00,3.5,-9.1,30.05,SE,138,13.0,16.0,55,0.00,,,0.00,Wunderground v.1.15,2013-01-19 18:05:00,
2013-01-19 09:10:00,3.5,-9.1,30.05,SE,138,16.0,16.0,55,0.00,,,0.00,Wunderground v.1.15,2013-01-19 18:10:00,
2013-01-19 09:20:00,3.4,-9.2,30.04,East,95,15.0,16.0,55,0.00,,,0.00,Wunderground v.1.15,2013-01-19 18:20:00,
2013-01-19 09:35:00,3.2,-9.0,30.03,East,101,12.0,13.0,56,0.00,,,0.00,Wunderground v.1.15,2013-01-19 18:35:00,
2013-01-19 09:45:00,3.5,-8.7,30.03,ESE,104,10.0,11.0,56,0.00,,,0.00,Wunderground v.1.15,2013-01-19 18:45:00,
2013-01-19 09:50:00,5.0,-8.4,30.03,SE,139,11.0,14.0,53,0.00,,,0.00,Wunderground v.1.15,2013-01-19 18:50:00,
2013-01-19 09:55:00,5.8,-8.5,30.03,ESE,116,13.0,14.0,51,0.00,,,0.00,Wunderground v.1.15,2013-01-19 18:55:00,
2013-01-19 10:05:00,7.6,-6.8,30.03,SE,133,14.0,24.0,51,0.00,,,0.00,Wunderground v.1.15,2013-01-19 19:05:00,
2013-01-19 10:15:00,5.0,-9.6,30.03,NNE,26,7.0,10.0,50,0.00,,,0.00,Wunderground v.1.15,2013-01-19 19:15:00,
2013-01-19 10:20:00,4.5,-9.7,30.03,East,101,7.0,7.0,51,0.00,,,0.00,Wunderground v.1.15,2013-01-19 19:20:00,
2013-01-19 10:25:00,4.5,-9.3,30.03,East,92,5.0,7.0,52,0.00,,,0.00,Wunderground v.1.15,2013-01-19 19:25:00,
2013-01-19 10:35:00,4.7,-9.1,30.02,NE,50,4.0,8.0,52,0.00,,,0.00,Wunderground v.1.15,2013-01-19 19:35:00,
2013-01-19 10:40:00,4.7,-9.1,30.02,East,85,6.0,8.0,52,0.00,,,0.00,Wunderground v.1.15,2013-01-19 19:40:00,
2013-01-19 10:45:00,4.8,-8.2,30.01,ESE,108,6.0,8.0,54,0.00,,,0.00,Wunderground v.1.15,2013-01-19 19:45:00,
2013-01-19 11:01:00,5.4,-7.7,30.00,SE,126,3.0,6.0,54,0.00,,,0.00,Wunderground v.1.15,2013-01-19 20:01:00,
2013-01-19 11:10:00,5.6,-7.5,30.00,NNE,29,6.0,8.0,54,0.00,,,0.00,Wunderground v.1.15,2013-01-19 20:10:00,
2013-01-19 11:15:00,5.8,-7.3,30.00,NNE,30,8.0,11.0,54,0.00,,,0.00,Wunderground v.1.15,2013-01-19 20:15:00,
2013-01-19 11:25:00,6.0,-7.5,30.00,NE,47,7.0,11.0,53,0.00,,,0.00,Wunderground v.1.15,2013-01-19 20:25:00,
2013-01-19 11:30:00,5.2,-7.5,30.00,NE,35,9.0,9.0,55,0.00,,,0.00,Wunderground v.1.15,2013-01-19 20:30:00,
2013-01-19 11:40:00,4.7,-8.0,30.00,NE,47,6.0,7.0,55,0.00,,,0.00,Wunderground v.1.15,2013-01-19 20:40:00,
2013-01-19 11:45:00,4.7,-8.0,29.99,ENE,64,7.0,10.0,55,0.00,,,0.00,Wunderground v.1.15,2013-01-19 20:45:00,
2013-01-19 11:50:00,4.5,-7.8,29.99,ENE,60,7.0,7.0,56,0.00,,,0.00,Wunderground v.1.15,2013-01-19 20:50:00,
2013-01-19 12:05:00,4.1,-7.8,29.99,ENE,71,7.0,7.0,57,0.00,,,0.00,Wunderground v.1.15,2013-01-19 21:05:00,
2013-01-19 12:10:00,3.9,-7.6,29.99,East,81,7.0,7.0,58,0.00,,,0.00,Wunderground v.1.15,2013-01-19 21:10:00,
2013-01-19 12:15:00,3.9,-7.6,29.98,East,83,6.0,7.0,58,0.00,,,0.00,Wunderground v.1.15,2013-01-19 21:15:00,
2013-01-19 12:20:00,3.7,-7.8,29.98,ENE,76,8.0,8.0,58,0.00,,,0.00,Wunderground v.1.15,2013-01-19 21:20:00,
2013-01-19 12:25:00,3.2,-8.3,29.98,ENE,73,9.0,10.0,58,0.00,,,0.00,Wunderground v.1.15,2013-01-19 21:25:00,
2013-01-19 12:35:00,3.4,-7.4,29.97,ENE,77,10.0,14.0,60,0.00,,,0.00,Wunderground v.1.15,2013-01-19 21:35:00,
2013-01-19 12:40:00,3.4,-7.4,29.97,East,94,11.0,12.0,60,0.00,,,0.00,Wunderground v.1.15,2013-01-19 21:40:00,
2013-01-19 12:45:00,3.4,-7.7,29.96,ENE,70,10.0,14.0,59,0.00,,,0.00,Wunderground v.1.15,2013-01-19 21:45:00,
2013-01-19 13:00:00,3.5,-7.6,29.95,ENE,71,13.0,13.0,59,0.00,,,0.00,Wunderground v.1.15,2013-01-19 22:00:00,
2013-01-19 13:10:00,3.4,-7.7,29.95,ENE,78,14.0,17.0,59,0.00,,,0.00,Wunderground v.1.15,2013-01-19 22:10:00,
2013-01-19 13:15:00,3.4,-7.7,29.95,East,91,14.0,17.0,59,0.00,,,0.00,Wunderground v.1.15,2013-01-19 22:15:00,
2013-01-19 13:20:00,3.5,-7.0,29.95,East,83,12.0,18.0,61,0.00,,,0.00,Wunderground v.1.15,2013-01-19 22:20:00,
2013-01-19 13:25:00,3.5,-7.3,29.95,East,100,12.0,18.0,60,0.00,,,0.00,Wunderground v.1.15,2013-01-19 22:25:00,
2013-01-19 13:35:00,3.7,-7.1,29.94,SE,125,15.0,15.0,60,0.00,,,0.00,Wunderground v.1.15,2013-01-19 22:35:00,
2013-01-19 13:40:00,4.1,-6.7,29.94,SE,133,16.0,16.0,60,0.00,,,0.00,Wunderground v.1.15,2013-01-19 22:40:00,
2013-01-19 13:50:00,4.1,-6.4,29.93,ESE,107,15.0,15.0,61,0.00,,,0.00,Wunderground v.1.15,2013-01-19 22:50:00,
2013-01-19 13:55:00,4.1,-6.0,29.93,East,94,13.0,15.0,62,0.00,,,0.00,Wunderground v.1.15,2013-01-19 22:55:00,
2013-01-19 14:05:00,4.1,-6.0,29.93,East,92,13.0,13.0,62,0.00,,,0.00,Wunderground v.1.15,2013-01-19 23:05:00,
2013-01-19 14:15:00,4.3,-6.2,29.92,East,95,15.0,16.0,61,0.00,,,0.00,Wunderground v.1.15,2013-01-19 23:15:00,
2013-01-19 14:20:00,4.1,-6.4,29.92,ENE,77,16.0,16.0,61,0.00,,,0.00,Wunderground v.1.15,2013-01-19 23:20:00,
2013-01-19 14:30:00,3.9,-6.6,29.91,ENE,68,15.0,16.0,61,0.00,,,0.00,Wunderground v.1.15,2013-01-19 23:30:00,
2013-01-19 14:35:00,4.1,-6.0,29.91,ENE,71,13.0,16.0,62,0.00,,,0.00,Wunderground v.1.15,2013-01-19 23:35:00,
2013-01-19 14:40:00,4.3,-5.9,29.91,ENE,74,12.0,12.0,62,0.00,,,0.00,Wunderground v.1.15,2013-01-19 23:40:00,
2013-01-19 14:45:00,4.5,-5.7,29.90,ENE,73,10.0,12.0,62,0.00,,,0.00,Wunderground v.1.15,2013-01-19 23:45:00,
2013-01-19 14:51:00,4.8,-5.7,29.90,ENE,71,11.0,17.0,61,0.00,,,0.00,Wunderground v.1.15,2013-01-19 23:51:00,
2013-01-19 15:00:00,5.0,-5.2,29.90,ENE,63,11.0,11.0,62,0.00,,,0.00,Wunderground v.1.15,2013-01-20 00:00:00,
2013-01-19 15:10:00,5.0,-5.2,29.90,ESE,104,11.0,11.0,62,0.00,,,0.00,Wunderground v.1.15,2013-01-20 00:10:00,
2013-01-19 15:15:00,5.0,-4.5,29.89,ESE,108,8.0,11.0,64,0.00,,,0.00,Wunderground v.1.15,2013-01-20 00:15:00,
2013-01-19 15:20:00,7.2,-3.4,29.89,ESE,116,11.0,14.0,61,0.00,,,0.00,Wunderground v.1.15,2013-01-20 00:20:00,
2013-01-19 15:25:00,7.2,-3.8,29.89,SE,131,13.0,14.0,60,0.00,,,0.00,Wunderground v.1.15,2013-01-20 00:25:00,
2013-01-19 15:30:00,6.7,-4.3,29.87,ESE,115,13.0,15.0,60,0.00,,,0.00,Wunderground v.1.15,2013-01-20 00:30:00,
2013-01-19 15:40:00,6.0,-4.6,29.87,ESE,104,12.0,12.0,61,0.00,,,0.00,Wunderground v.1.15,2013-01-20 00:40:00,
2013-01-19 15:50:00,5.6,-4.0,29.87,East,88,13.0,13.0,64,0.00,,,0.00,Wunderground v.1.15,2013-01-20 00:50:00,
2013-01-19 15:55:00,5.4,-4.5,29.87,East,85,13.0,17.0,63,0.00,,,0.00,Wunderground v.1.15,2013-01-20 00:55:00,
2013-01-19 16:00:00,5.6,-4.0,29.86,ENE,70,11.0,11.0,64,0.00,,,0.00,Wunderground v.1.15,2013-01-20 01:00:00,
2013-01-19 16:05:00,5.6,-4.3,29.86,ESE,102,12.0,13.0,63,0.00,,,0.00,Wunderground v.1.15,2013-01-20 01:05:00,
2013-01-19 16:10:00,5.6,-4.3,29.86,NE,56,13.0,18.0,63,0.00,,,0.00,Wunderground v.1.15,2013-01-20 01:10:00,
2013-01-19 16:20:00,5.8,-3.8,29.85,NE,46,11.0,11.0,64,0.00,,,0.00,Wunderground v.1.15,2013-01-20 01:20:00,
2013-01-19 16:30:00,5.8,-3.1,29.85,East,97,6.0,6.0,66,0.00,,,0.00,Wunderground v.1.15,2013-01-20 01:30:00,
2013-01-19 16:35:00,6.1,-2.8,29.85,East,94,5.0,6.0,66,0.00,,,0.00,Wunderground v.1.15,2013-01-20 01:35:00,
2013-01-19 16:40:00,6.3,-2.6,29.85,ENE,73,5.0,5.0,66,0.00,,,0.00,Wunderground v.1.15,2013-01-20 01:40:00,
2013-01-19 16:45:00,6.0,-2.9,29.83,East,80,8.0,9.0,66,0.00,,,0.00,Wunderground v.1.15,2013-01-20 01:45:00,
2013-01-19 16:55:00,6.5,-2.5,29.83,NNE,23,9.0,12.0,66,0.00,,,0.00,Wunderground v.1.15,2013-01-20 01:55:00,
2013-01-19 17:00:00,7.0,-2.0,29.83,NNE,25,9.0,12.0,66,0.00,,,0.00,Wunderground v.1.15,2013-01-20 02:00:00,
2013-01-19 17:05:00,7.4,-2.2,29.83,NNE,25,11.0,12.0,64,0.00,,,0.00,Wunderground v.1.15,2013-01-20 02:05:00,
2013-01-19 17:10:00,7.4,-2.2,29.83,NNE,22,16.0,16.0,64,0.00,,,0.00,Wunderground v.1.15,2013-01-20 02:10:00,
2013-01-19 17:15:00,7.4,-2.2,29.82,NNE,28,7.0,16.0,64,0.00,,,0.00,Wunderground v.1.15,2013-01-20 02:15:00,
2013-01-19 17:30:00,7.6,-2.1,29.81,ENE,59,6.0,6.0,64,0.00,,,0.00,Wunderground v.1.15,2013-01-20 02:30:00,
2013-01-19 17:35:00,7.6,-2.1,29.81,East,85,13.0,13.0,64,0.00,,,0.00,Wunderground v.1.15,2013-01-20 02:35:00,
2013-01-19 17:40:00,6.9,-2.7,29.81,East,81,8.0,10.0,64,0.00,,,0.00,Wunderground v.1.15,2013-01-20 02:40:00,
2013-01-19 17:45:00,7.2,0.7,29.80,ENE,63,11.0,11.0,74,0.00,,,0.00,Wunderground v.1.15,2013-01-20 02:45:00,
2013-01-19 17:55:00,7.6,1.3,29.80,ENE,64,16.0,16.0,75,0.00,,,0.00,Wunderground v.1.15,2013-01-20 02:55:00,
2013-01-19 18:00:00,7.7,2.0,29.79,East,101,7.0,7.0,77,0.00,,,0.00,Wunderground v.1.15,2013-01-20 03:00:00,
2013-01-19 18:05:00,7.7,2.3,29.79,East,92,6.0,8.0,78,0.00,,,0.00,Wunderground v.1.15,2013-01-20 03:05:00,
2013-01-19 18:10:00,8.1,2.7,29.79,East,94,8.0,8.0,78,0.00,,,0.00,Wunderground v.1.15,2013-01-20 03:10:00,
2013-01-19 18:15:00,8.1,3.2,29.77,East,84,10.0,10.0,80,0.00,,,0.00,Wunderground v.1.15,2013-01-20 03:15:00,
2013-01-19 18:20:00,8.6,3.4,29.77,NE,56,11.0,14.0,79,0.00,,,0.00,Wunderground v.1.15,2013-01-20 03:20:00,
2013-01-19 18:25:00,8.3,3.1,29.77,East,90,12.0,14.0,79,0.00,,,0.00,Wunderground v.1.15,2013-01-20 03:25:00,
2013-01-19 21:50:00,15.7,10.6,29.67,SE,142,14.0,14.0,80,0.00,,,0.00,Wunderground v.1.15,2013-01-20 06:50:00,
2013-01-19 21:55:00,15.7,10.6,29.67,SE,142,8.0,14.0,80,0.00,,,0.00,Wunderground v.1.15,2013-01-20 06:55:00,
2013-01-19 22:00:00,15.7,10.9,29.67,ESE,122,10.0,10.0,81,0.00,,,0.00,Wunderground v.1.15,2013-01-20 07:00:00,
2013-01-19 22:05:00,15.7,10.9,29.67,ESE,119,14.0,18.0,81,0.00,,,0.00,Wunderground v.1.15,2013-01-20 07:05:00,
2013-01-19 22:10:00,15.4,10.3,29.67,ESE,112,14.0,19.0,80,0.00,,,0.00,Wunderground v.1.15,2013-01-20 07:10:00,
2013-01-19 22:15:00,16.1,11.3,29.65,SE,128,12.0,19.0,81,0.00,,,0.00,Wunderground v.1.15,2013-01-20 07:15:00,
2013-01-19 22:20:00,17.8,13.0,29.65,SE,135,11.0,11.0,81,0.00,,,0.00,Wunderground v.1.15,2013-01-20 07:20:00,
2013-01-19 22:25:00,18.3,13.7,29.65,ESE,121,8.0,11.0,82,0.00,,,0.00,Wunderground v.1.15,2013-01-20 07:25:00,
2013-01-19 22:30:00,17.0,11.3,29.65,ESE,108,13.0,13.0,78,0.00,,,0.00,Wunderground v.1.15,2013-01-20 07:30:00,
2013-01-19 22:40:00,18.0,12.3,29.65,SE,132,19.0,19.0,78,0.00,,,0.00,Wunderground v.1.15,2013-01-20 07:40:00,
2013-01-19 22:45:00,16.4,11.3,29.64,SE,133,16.0,19.0,80,0.00,,,0.00,Wunderground v.1.15,2013-01-20 07:45:00,
2013-01-19 22:50:00,18.9,15.1,29.64,SE,133,15.0,16.0,85,0.00,,,0.00,Wunderground v.1.15,2013-01-20 07:50:00,
2013-01-19 23:00:00,21.9,16.7,29.63,ESE,105,13.0,16.0,80,0.00,,,0.00,Wunderground v.1.15,2013-01-20 08:00:00,
2013-01-19 23:05:00,21.9,16.7,29.63,ESE,105,16.0,16.0,80,0.00,,,0.00,Wunderground v.1.15,2013-01-20 08:05:00,
2013-01-19 23:10:00,21.1,16.7,29.63,ESE,122,12.0,12.0,83,0.00,,,0.00,Wunderground v.1.15,2013-01-20 08:10:00,
2013-01-19 23:20:00,18.1,12.4,29.62,ESE,118,11.0,12.0,78,0.00,,,0.00,Wunderground v.1.15,2013-01-20 08:20:00,
2013-01-19 23:25:00,17.7,12.6,29.62,ESE,109,10.0,12.0,80,0.00,,,0.00,Wunderground v.1.15,2013-01-20 08:25:00,
2013-01-19 23:35:00,20.2,15.9,29.62,SE,132,17.0,17.0,83,0.00,,,0.00,Wunderground v.1.15,2013-01-20 08:35:00,
2013-01-19 23:40:00,20.2,15.9,29.62,SE,132,17.0,17.0,83,0.00,,,0.00,Wunderground v.1.15,2013-01-20 08:40:00,
2013-01-19 23:50:00,22.4,17.5,29.61,East,95,9.0,11.0,81,0.00,,,0.00,Wunderground v.1.15,2013-01-20 08:50:00,
2013-01-19 23:55:00,22.4,17.5,29.61,SE,140,13.0,13.0,81,0.00,,,0.00,Wunderground v.1.15,2013-01-20 08:55:00,